Flag for Germany Weather past 2 weeks in Walsrode, Lower Saxony, Germany

Now
54 °F

Fog.


Feels Like: 51 °F
Forecast: 46 / 59 °F
Wind: 8 mph from West

Location: Fassberg

Current Time: Oct 25, 2014 at 5:42:46 PM

Latest Report: Oct 25, 2014 at 4:20 PM


Visibility: 2 mi

Pressure: 30.09 "Hg

Humidity: 94%

Dew point: 52 °F

Location of WalsrodeLocation

Historic Weather in Walsrode — Graph

°F

Walsrode temperature yesterday

Maximum temperature yesterday: 57 °F (at 2:20 PM)
Minimum temperature yesterday: 48 °F (at 7:20 AM)
Average temperature yesterday: 52 °F

Past Weeks' High & Low Weather Summary

 TemperatureHumidityPressure
High73 °F (Oct 19, 3:20 PM)100% (Oct 11, 3:20 AM)30.18 "Hg (Oct 11, 3:20 AM)
Low45 °F (Oct 14, 7:20 AM)49% (Oct 14, 3:20 PM)29.42 "Hg (Oct 21, 6:20 PM)
Average54 °F86%29.88 "Hg
* Reported Oct 10 4:20 PM — Oct 25 4:20 PM, Walsrode, Weather by CustomWeather, © 2014

Note: Actual official high and low records may vary slightly from our data, if they occured in-between our weather recording intervals... More about our weather records

Advertising

Walsrode weather history for previous 24 hours

 ConditionsComfort  
Time TempWeatherWind HumidityBarometerVisibility
4:20 PM
Oct 25
54 °FFog.8 mph94%30.09 "Hg2 mi
3:20 PM54 °FFog.7 mph94%30.07 "Hg2 mi
2:20 PM52 °FDrizzle. Fog.8 mph94%30.07 "Hg2 mi
1:20 PM52 °FDrizzle. Fog.7 mph94%30.07 "Hg1 mi
12:50 PM52 °FDrizzle. Fog.8 mph94%30.07 "Hg2 mi
12:20 PM52 °FFog.7 mph94%30.07 "Hg3 mi
11:20 AM52 °FDrizzle. Fog.9 mph88%30.07 "Hg3 mi
10:20 AM50 °FFog.7 mph94%30.07 "Hg3 mi
9:20 AM50 °FDrizzle. Fog.7 mph88%30.04 "Hg2 mi
8:20 AM48 °FPassing clouds.3 mph94%30.04 "Hg5 mi
7:20 AM48 °FLight rain. Mostly cloudy.8 mph87%30.04 "Hg5 mi
6:20 AM48 °FOvercast.8 mph87%30.04 "HgN/A
5:20 AM48 °FLight rain. Overcast.8 mph87%30.04 "HgN/A
4:20 AM50 °FOvercast.8 mph82%30.04 "HgN/A
3:20 AM48 °FPassing clouds.8 mph87%30.04 "HgN/A
2:20 AM50 °FPassing clouds.8 mph82%30.07 "HgN/A
1:20 AM50 °FPassing clouds.9 mph82%30.07 "HgN/A
12:20 AM50 °FPassing clouds.8 mph82%30.07 "HgN/A
11:20 PM
Oct 24
52 °FPassing clouds.8 mph77%30.07 "HgN/A
10:20 PM52 °FPassing clouds.6 mph77%30.09 "HgN/A
9:20 PM52 °FPassing clouds.7 mph77%30.09 "HgN/A
8:20 PM52 °FPartly cloudy.5 mph77%30.09 "HgN/A
7:20 PM52 °FPartly cloudy.3 mph77%30.09 "HgN/A
6:20 PM54 °FBroken clouds.6 mph72%30.09 "HgN/A
5:20 PM55 °FPartly sunny.6 mph67%30.09 "HgN/A
Weather by CustomWeather, © 2014

See weather overviewHow to use our weather pages